Terminal Aerodrome Forecast
Issued by NWS

Home | Current Version | Previous Version | Text Only | Print | Product List | Glossary On
Versions: 1 2 3 4 5 6 7 8 9 10 11 12 13 14 15 16 17 18 19 20 21 22 23 24 25 26 27 28 29 30 31 32 33 34 35 36 37 38 39 40 41 42 43 44 45 46 47 48 49 50
000
FTUS44 KHGX 260728
TAFCXO
TAFCXO
TAF AMD
KCXO 260728Z 2607/2706 13010KT P6SM VCTS SCT007 BKN015CB BKN070
     FM261500 18010KT P6SM SCT015 BKN025
     FM261800 18010KT P6SM OVC050
     FM270100 00000KT 4SM BR OVC025=

USA.gov is the U.S. government's official web portal to all federal, state and local government web resources and services.